Walla Walla, WA

3:12 AM PDT on September 27, 2016 (GMT -0700)
Walla Walla Regional

Weather History for KALW - November, 2012

Change the Weather History Date:

Wednesday, November 7, 2012

  Actual Average Record
Temperature  
Mean Temperature 50 °F -  
Max Temperature 59 °F 53 °F 71 °F (1978)
Min Temperature 37 °F 39 °F 19 °F (2003)
Degree Days  
Heating Degree Days 15    
Moisture  
Dew Point 39 °F    
Average Humidity 66    
Maximum Humidity 92    
Minimum Humidity 43    
Precipitation  
Precipitation 0.14 in - - ()
Sea Level Pressure  
Sea Level Pressure 30.04 in    
Wind  
Wind Speed 13 mph (South)    
Max Wind Speed 18 mph    
Max Gust Speed 25 mph    
Visibility 10 miles    
Events Rain    
Averages and records for this station are not official NWS values.
T = Trace of Precipitation, MM = Missing Value Source: NWS Daily Summary

Daily Weather History Graph

Daily Weather History Graph

Search for Another Location

Airport or City:

Trip Planner

Search our weather history database for the weather conditions in past years. The results will help you decide how hot, cold, wet, or windy it might be!

Date:

Astronomy

Nov. 07, 2012 Rise Set
Actual Time 6:43 AM PST 4:29 PM PST
Civil Twilight 6:11 AM PST 5:01 PM PST
Nautical Twilight 5:35 AM PST 5:37 PM PST
Astronomical Twilight 5:00 AM PST 6:12 PM PST
Moon No Moon Rise 1:01 PM PST (11/7)
Length of Visible Light 10h 50m
Length of Day
9h 46m
Last Quarter, 42% of the Moon is Illuminated
Nov 7
Last Quarter
Nov 13
New
Nov 20
First Quarter
Nov 28
Full
Dec 6
Last Quarter

Hourly Weather History & Observations

Time (PST) Temp. Windchill Dew Point Humidity Pressure Visibility Wind Dir Wind Speed Gust Speed Precip Events Conditions
12:53 AM 59.0 °F - 46.9 °F 64% 29.95 in 10.0 mi South 13.8 mph - N/A   Overcast
1:53 AM 59.0 °F - 46.9 °F 64% 29.96 in 10.0 mi South 13.8 mph - N/A   Overcast
2:53 AM 57.0 °F - 48.0 °F 72% 29.97 in 10.0 mi SSW 12.7 mph - 0.00 in   Overcast
3:14 AM 57.2 °F - 46.4 °F 67% 29.97 in 10.0 mi SW 12.7 mph - N/A   Overcast
3:53 AM 55.0 °F - 48.0 °F 77% 29.99 in 5.0 mi SW 10.4 mph - 0.01 in Rain Rain
4:53 AM 51.1 °F - 48.9 °F 92% 30.03 in 4.0 mi SW 15.0 mph - 0.09 in Rain Rain
5:21 AM 50.0 °F - 46.4 °F 87% 30.04 in 8.0 mi SSW 16.1 mph - 0.02 in Rain Light Rain
5:53 AM 48.9 °F - 45.0 °F 86% 30.06 in 10.0 mi South 15.0 mph - 0.04 in Rain Light Rain
6:53 AM 48.9 °F - 39.9 °F 71% 30.07 in 10.0 mi SSW 16.1 mph 25.3 mph 0.00 in   Overcast
7:53 AM 48.0 °F - 39.0 °F 71% 30.09 in 10.0 mi SSW 18.4 mph - N/A   Mostly Cloudy
8:53 AM 48.9 °F - 39.9 °F 71% 30.11 in 10.0 mi SSW 16.1 mph - N/A   Clear
9:53 AM 51.1 °F - 39.9 °F 66% 30.10 in 10.0 mi SSW 13.8 mph 20.7 mph N/A   Clear
10:53 AM 53.1 °F - 37.9 °F 57% 30.10 in 10.0 mi SSW 18.4 mph - N/A   Clear
11:53 AM 54.0 °F - 37.0 °F 53% 30.08 in 10.0 mi SW 15.0 mph - N/A   Partly Cloudy
12:53 PM 53.1 °F - 36.0 °F 52% 30.08 in 10.0 mi WSW 12.7 mph - N/A   Scattered Clouds
1:53 PM 55.0 °F - 33.1 °F 43% 30.08 in 10.0 mi SW 13.8 mph - N/A   Scattered Clouds
2:53 PM 54.0 °F - 33.1 °F 45% 30.07 in 10.0 mi WSW 11.5 mph - N/A   Clear
3:53 PM 52.0 °F - 35.1 °F 53% 30.07 in 10.0 mi SSW 6.9 mph - N/A   Clear
4:53 PM 48.0 °F - 36.0 °F 63% 30.06 in 10.0 mi SSE 6.9 mph - N/A   Clear
5:53 PM 48.0 °F - 33.1 °F 56% 30.07 in 10.0 mi SSE 9.2 mph - N/A   Clear
6:53 PM 45.0 °F 40.6 °F 33.1 °F 63% 30.05 in 10.0 mi SE 8.1 mph - N/A   Clear
7:53 PM 42.1 °F 37.1 °F 32.0 °F 67% 30.03 in 10.0 mi East 8.1 mph - N/A   Clear
8:53 PM 41.0 °F 36.4 °F 32.0 °F 70% 30.01 in 10.0 mi East 6.9 mph - N/A   Clear
9:53 PM 41.0 °F 35.8 °F 30.9 °F 67% 29.99 in 10.0 mi ESE 8.1 mph - N/A   Clear
10:53 PM 41.0 °F 35.2 °F 30.9 °F 67% 29.96 in 10.0 mi ESE 9.2 mph - N/A   Clear
11:53 PM 37.9 °F 31.5 °F 30.0 °F 73% 29.94 in 10.0 mi East 9.2 mph - N/A   Clear